HVDC transfer

From www.emi.ea.govt.nz provided by the Electricity Authority (New Zealand)
Run at: 20240514090457

Parameters
Date range,21 Oct 2019 - 21 Oct 2019
Time scale,Trading period
Show,Average flow (MW)

Period start,Period end,Trading period,Direction,Energy transfer (GWh),Peak flow (MW),Average flow (MW)
21/10/2019 00:00:00,21/10/2019 00:30:00,1,Northward at Haywards,0.016,31,31
21/10/2019 00:30:00,21/10/2019 01:00:00,2,Southward at Benmore,-0.025,-51,-51
21/10/2019 01:00:00,21/10/2019 01:30:00,3,Southward at Benmore,-0.030,-61,-61
21/10/2019 01:30:00,21/10/2019 02:00:00,4,Southward at Benmore,-0.054,-109,-109
21/10/2019 02:00:00,21/10/2019 02:30:00,5,Southward at Benmore,-0.068,-136,-136
21/10/2019 02:30:00,21/10/2019 03:00:00,6,Southward at Benmore,-0.073,-147,-147
21/10/2019 03:00:00,21/10/2019 03:30:00,7,Southward at Benmore,-0.085,-170,-170
21/10/2019 03:30:00,21/10/2019 04:00:00,8,Southward at Benmore,-0.099,-199,-199
21/10/2019 04:00:00,21/10/2019 04:30:00,9,Southward at Benmore,-0.095,-190,-190
21/10/2019 04:30:00,21/10/2019 05:00:00,10,Southward at Benmore,-0.092,-184,-184
21/10/2019 05:00:00,21/10/2019 05:30:00,11,Southward at Benmore,-0.046,-93,-93
21/10/2019 05:30:00,21/10/2019 06:00:00,12,Southward at Benmore,-0.011,-22,-22
21/10/2019 06:00:00,21/10/2019 06:30:00,13,Northward at Haywards,0.084,167,167
21/10/2019 06:30:00,21/10/2019 07:00:00,14,Northward at Haywards,0.129,258,258
21/10/2019 07:00:00,21/10/2019 07:30:00,15,Northward at Haywards,0.202,403,403
21/10/2019 07:30:00,21/10/2019 08:00:00,16,Northward at Haywards,0.223,446,446
21/10/2019 08:00:00,21/10/2019 08:30:00,17,Northward at Haywards,0.225,450,450
21/10/2019 08:30:00,21/10/2019 09:00:00,18,Northward at Haywards,0.232,464,464
21/10/2019 09:00:00,21/10/2019 09:30:00,19,Northward at Haywards,0.245,489,489
21/10/2019 09:30:00,21/10/2019 10:00:00,20,Northward at Haywards,0.249,498,498
21/10/2019 10:00:00,21/10/2019 10:30:00,21,Northward at Haywards,0.256,512,512
21/10/2019 10:30:00,21/10/2019 11:00:00,22,Northward at Haywards,0.223,445,445
21/10/2019 11:00:00,21/10/2019 11:30:00,23,Northward at Haywards,0.218,436,436
21/10/2019 11:30:00,21/10/2019 12:00:00,24,Northward at Haywards,0.194,388,388
21/10/2019 12:00:00,21/10/2019 12:30:00,25,Northward at Haywards,0.211,421,421
21/10/2019 12:30:00,21/10/2019 13:00:00,26,Northward at Haywards,0.205,409,409
21/10/2019 13:00:00,21/10/2019 13:30:00,27,Northward at Haywards,0.213,426,426
21/10/2019 13:30:00,21/10/2019 14:00:00,28,Northward at Haywards,0.194,388,388
21/10/2019 14:00:00,21/10/2019 14:30:00,29,Northward at Haywards,0.192,384,384
21/10/2019 14:30:00,21/10/2019 15:00:00,30,Northward at Haywards,0.196,392,392
21/10/2019 15:00:00,21/10/2019 15:30:00,31,Northward at Haywards,0.177,353,353
21/10/2019 15:30:00,21/10/2019 16:00:00,32,Northward at Haywards,0.194,388,388
21/10/2019 16:00:00,21/10/2019 16:30:00,33,Northward at Haywards,0.218,436,436
21/10/2019 16:30:00,21/10/2019 17:00:00,34,Northward at Haywards,0.209,417,417
21/10/2019 17:00:00,21/10/2019 17:30:00,35,Northward at Haywards,0.198,395,395
21/10/2019 17:30:00,21/10/2019 18:00:00,36,Northward at Haywards,0.205,410,410
21/10/2019 18:00:00,21/10/2019 18:30:00,37,Northward at Haywards,0.198,396,396
21/10/2019 18:30:00,21/10/2019 19:00:00,38,Northward at Haywards,0.208,416,416
21/10/2019 19:00:00,21/10/2019 19:30:00,39,Northward at Haywards,0.199,398,398
21/10/2019 19:30:00,21/10/2019 20:00:00,40,Northward at Haywards,0.200,399,399
21/10/2019 20:00:00,21/10/2019 20:30:00,41,Northward at Haywards,0.219,438,438
21/10/2019 20:30:00,21/10/2019 21:00:00,42,Northward at Haywards,0.222,443,443
21/10/2019 21:00:00,21/10/2019 21:30:00,43,Northward at Haywards,0.227,453,453
21/10/2019 21:30:00,21/10/2019 22:00:00,44,Northward at Haywards,0.223,446,446
21/10/2019 22:00:00,21/10/2019 22:30:00,45,Northward at Haywards,0.188,376,376
21/10/2019 22:30:00,21/10/2019 23:00:00,46,Northward at Haywards,0.105,209,209
21/10/2019 23:00:00,21/10/2019 23:30:00,47,Northward at Haywards,0.095,189,189
21/10/2019 23:30:00,22/10/2019 00:00:00,48,Northward at Haywards,0.045,90,90
